Regional Weather Roundup
Issued by NWS

Home | Current Version | Previous Version | Graphics & Text | Print | Product List | Glossary On
Versions: 1 2 3 4 5 6 7 8 9 10 11 12 13 14 15 16 17 18 19 20 21 22 23 24 25 26 27 28 29 30 31 32 33 34 35 36 37 38 39 40 41 42 43 44 45 46 47 48 49 50
676
ASUS43 KMKX 190659
RWRWI

WISCONSIN REGIONAL WEATHER ROUNDUP
NATIONAL WEATHER SERVICE MILWAUKEE/SULLIVAN WI
100 AM CST THU JAN 19 2017

NOTE: "FAIR" INDICATES FEW OR NO CLOUDS BELOW 12,000 FEET WITH NO
SIGNIFICANT WEATHER AND/OR OBSTRUCTIONS TO VISIBILITY.

WIZ001-002-006>008-014>016-023>028-190800-
NORTHWEST WISCONSIN

CITY           SKY/WX    TMP DP  RH WIND       PRES   REMARKS
SUPERIOR ARPT  CLOUDY    27  27  98 SW3       29.79F FOG
ASHLAND        CLOUDY    30  28  92 S3        29.83R FOG
HAYWARD        CLOUDY    29  27  92 S5        29.83S FOG     WCI  24
SIREN          CLOUDY    29  29  99 S6        29.81F FOG     WCI  23
CUMBERLAND     FOG       27  27 100 S7        29.84S VSB 3/4 WCI  19
RICE LAKE        N/A     27  27  98 SE3       29.87S FOG
CHETEK         FOG       27  27  99 SE6       29.87S VSB 1/2 WCI  20
LADYSMITH      CLOUDY    29  28  96 SE3       29.88S FOG
EAU CLAIRE     NOT AVBL
MENOMONIE      FOG       26  25  99 MISG      29.88R VSB 1/4
NEW RICHMOND   CLOUDY    31  31 100 SE6       29.84S FOG     WCI  25
OSCEOLA        CLEAR     31  31 100 SE7       29.85F WCI  25
$$

WIZ003>005-009-010-017-018-190800-
NORTH CENTRAL WISCONSIN

CITY           SKY/WX    TMP DP  RH WIND       PRES   REMARKS
MANITOWISH WTR NOT AVBL
ARBOR VITAE    CLOUDY    30  28  95 S3        29.84R FOG
WOODRUFF       CLOUDY    30  28  95 S3        29.84R FOG
RHINELANDER    CLOUDY    30  29  96 SW8       29.86S FOG     WCI  22
EAGLE RIVER    CLOUDY    29  29 100 SW3       29.84R FOG
LAND O LAKES   CLOUDY    24  23  97 CALM      29.85S FOG
PHILLIPS       CLOUDY    28  28 100 SW7       29.85R FOG     WCI  21
TOMAHAWK       CLOUDY    27  26  96 CALM      29.87R FOG
MEDFORD        FOG       27  27  99 S8        29.87S VSB 1/4 WCI  19
MERRILL        CLOUDY    29  29 100 SW5         N/A  FOG     WCI  24
$$

WIZ029-030-035-036-043>047-190800-
CENTRAL WISCONSIN

CITY           SKY/WX    TMP DP  RH WIND       PRES   REMARKS
WAUSAU         CLOUDY    29  28  96 SW5       29.89S FOG     WCI  24
MOSINEE        CLOUDY    28  28 100 S6        29.91R FOG     WCI  22
MARSHFIELD     FOG       30  28  92 SW8       29.89S VSB 1   WCI  22
STEVENS POINT  CLOUDY    27  27 100 SW9       29.93R FOG     WCI  18
WAUPACA        CLOUDY    32  30  93 SW6       29.94S FOG     WCI  26
WAUTOMA        CLOUDY    32  31  96 SW6       29.95S WCI  26
WISC RAPIDS    CLOUDY    31  31 100 SW12      29.93F FOG     WCI  22
CAMP DOUGLAS   NOT AVBL
$$

WIZ011>013-019>022-031-037>040-048>050-190800-
NORTHEAST WISCONSIN

CITY           SKY/WX    TMP DP  RH WIND       PRES   REMARKS
ANTIGO         CLOUDY    27  27  99 W6        29.87S FOG     WCI  21
SHAWANO        CLOUDY    32  29  90 CALM      29.92R
OCONTO         NOT AVBL
STURGEON BAY   CLOUDY    31  29  92 SW9       29.93S WCI  23
GREEN BAY      CLOUDY    33  31  92 SW5       29.94R WCI  29
MANITOWOC      NOT AVBL
APPLETON       CLOUDY    32  32 100 SW16      29.92S FOG     WCI  21
CLINTONVILLE   CLOUDY    30  28  93 SW5       29.92R FOG     WCI  25
OSHKOSH        CLOUDY    32  30  92 SW9       29.95S FOG     WCI  24
$$

WIZ032>034-041-042-053>061-190800-
SOUTHWEST WISCONSIN

CITY           SKY/WX    TMP DP  RH WIND       PRES   REMARKS
LA CROSSE      CLOUDY    37  34  89 S12       29.92S FOG     WCI  29
SPARTA         CLOUDY    34  33  96 S3        29.93F FOG
VIROQUA        CLOUDY    33  33 100 S8        29.93R VSB 1/2 WCI  27
BOSCOBEL       CLOUDY    36  34  92 SW3       29.98R FOG
PRAIRIE DU CHI MOCLDY    34  32  93 CALM      29.96S
PLATTEVILLE    CLOUDY    33  33 100 S8        29.98S WCI  26
$$

WIZ056-057-062-063-064-067-068-190800-
SOUTH CENTRAL WISCONSIN

CITY           SKY/WX    TMP DP  RH WIND       PRES   REMARKS
REEDSBURG      NOT AVBL
BARABOO/DELLS  FOG       33  33  98 SW9       29.94F VSB 1   WCI  25
LONE ROCK      NOT AVBL
MINERAL POINT  FOG       34  34 100 S10       29.97R VSB 1/2 WCI  26
MADISON        CLOUDY    33  32  96 S8        29.99S FOG     WCI  26
MIDDLETON      CLOUDY    35  35 100 S6        29.99S WCI  30
WATERTOWN      CLOUDY    33  33 100 SW7       29.97F FOG     WCI  27
MONROE         FOG       32  32 100 S12       29.98S VSB 1/4 WCI  23
JANESVILLE     PTCLDY    32  32 100 S5        30.01S FOG     WCI  27
$$

WIZ051-052-058>065-066-070>072-190800-
SOUTHEAST WISCONSIN

CITY           SKY/WX    TMP DP  RH WIND       PRES   REMARKS
MILWAUKEE      CLOUDY    34  31  88 SW9       30.01R FOG     WCI  27
WAUKESHA       CLOUDY    32  32 100 SW8       30.00S FOG     WCI  25
MILWAUKEE/TIMM CLOUDY    32  30  93 W7        30.00S FOG     WCI  26
RACINE         FOG       33  31  92 SW13      30.03R VSB 1   WCI  24
KENOSHA        CLOUDY    33  32  96 SW9       30.02S FOG     WCI  25
FOND DU LAC    CLOUDY    33  29  85 SW9G17    29.96S FOG     WCI  25
SHEBOYGAN      CLEAR     32  29  88 SW9       29.95F FOG     WCI  24
WEST BEND      CLOUDY    32  32 100 SW8       29.97F FOG     WCI  25
JUNEAU         FOG       32  32  99 S9        29.99S VSB 1/4 WCI  24
$$

LSZ147-162-190800-
LAKE SUPERIOR

STATION/POSITION TIME  TEMP    WIND        PRES    WAVE
                       AIR SEA DIR/SP/G            HT/PER
                 (UTC) (F)     (DEG/KT/KT) (MB)    (FT/S)
DEVILS ISLAND    0600   35     180/  6/  6 1010.1F
PORT WING        0640   24     150/  1/  2 1009.5S
SAXON HARBOR     0630   27     170/  1/  2 1009.8F
$$

LMZ867-665-643>646-190800-
LAKE MICHIGAN

STATION/POSITION TIME  TEMP    WIND        PRES    WAVE
                       AIR SEA DIR/SP/G            HT/PER
                 (UTC) (F)     (DEG/KT/KT) (MB)    (FT/S)
NORTHPORT PIER   0640   31     200/  3/  6 1012.9S
SISTER BAY       0520   34     230/  8/ 10   N/A
ALGOMA LAKESHORE 0439          240/  9/ 10   N/A
KEWAUNEE LAKESHO 0630   32     190/  2/  5 1013.8R
SHEBOYGAN LAKESH 0600   33     220/ 12/ 13 1015.1F
PORT WASHINGTON  0640   34     250/  8/ 16 1016.3F
MILWAUKEE LAKESH 0630   33     260/  7/ 10   N/A
KENOSHA   LAKESH 0600   33     250/  9/ 13 1016.6
$$

TC  - TEMPERATURE IN CELSIUS
VSB - VISIBILITY IN STATUTE MILES
WCI - WIND CHILL INDEX
HX  - HEAT INDEX





USA.gov is the U.S. government's official web portal to all federal, state and local government web resources and services.